Probability
0 0 0 0 0 0 0 0 0 0 0 0 0 0 0 0 0 0 0 0 0 0 0 0 0 0 0 0 0 0 0 0 0 0 0 0 0 0 0 0 0 0 0 0
0 0 0 0 0 0 0 0 0 0 0 0 0 0 0 0 0 0 0 0 0 0 0 0 0 0 0 0 0 0 0 0 0 0 0 0 0 0 0 0 0 0 0 0
0 0 0 0 0 0 0 0 0 0 0 0 0 0 0 0 0 0 0 0 0 0 0 0 0 0 0 0 0 0 0 0 0 0 0 0 0 0 0 0 0 0 0 0
0 0 0 0 0 0 0 0 0 0 0 0 0 0 0 0 0 0 0 0 0 0 0 0 0 0 0 0 0 0 0 0 0 0 0 0 0 0 0 0 0 0 0 0
0 0 0 0 0 0 0 0 0 0 0 0 0 0 0 0 0 0 0 0 0 0 0 0 0 0 0 0 0 0 0 0 0 0 0 0 0 0 0 0 0 0 0 0
0 0 0 0 0 0 0 0 0 0 0 0 0 0 0 0 0 0 0 0 0 0 0 0 0 0 0 0 0 0 0 0 0 0 0 0 0 0 0 0 0 0 0 0
0 0 0 0 0 0 0 0 0 0 0 0 0 0 0 0 0 0 0 0 0 0 0 0 0 0 0 0 0 0 0 0 0 0 0 0 0 0 0 0 0 0 0 0
0 0 0 0 0 0 0 0 0 0 0 0 0 0 0 0 0 0 0 0 0 0 0 0 0 0 0 0 0 0 0 0 0 0 0 0 0 0 0 0 0 0 0 0
0 0 0 0 0 0 0 0 0 0 0 0 0 0 0 0 0 0 0 0 0 0 0 0 0 0 0 0 0 0 0 0 0 0 0 0 0 0 0 0 0 0 0 0
0 0 0 0 0 0 0 0 0 0 0 0 0 0 0 0 0 0 0 0 0 0 0 0 0 0 0 0 0 0 0 0 0 0 0 0 0 0 0 0 0 0 0 0
0 0 0 0 0 0 0 0 0 0 0 0 0 0 0 0 0 0 0 0 0 0 0 0 0 0 0 0 0 0 0 0 0 0 0 0 0 0 0 0 0 0 0 0
0 0 0 0 0 0 0 0 0 0 0 0 0 0 0 0 0 0 0 0 0 0 0 0 0 0 0 0 0 0 0 0 0 0 0 0 0 0 0 0 0 0 0 0
0 0 0 0 0 0 0 0 0 0 0 0 0 0 0 0 0 0 0 0 0 0 0 0 0 0 0 0 0 0 0 0 0 0 0 0 0 0 0 0 0 0 0 0
0 0 0 0 0 0 0 0 0 0 0 0 0 0 0 0 0 0 0 0 0 0 0 0 0 0 0 0 0 0 0 0 0 0 0 0 0 0 0 0 0 0 0 0
0 0 0 0 0 0 0 0 0 0 0 0 0 0 0 0 0 0 0 0 0 0 0 0 0 0 0 0 0 0 0 0 0 0 0 0 0 0 0 0 0 0 0 0
0 0 0 0 0 0 0 0 0 0 0 0 0 0 0 0 0 0 0 0 0 0 0 0 0 0 0 0 0 0 0 0 0 0 0 0 0 0 0 0 0 0 0 0
0 0 0 0 0 0 0 0 0 0 0 0 0 0 0 0 0 0 0 0 0 0 0 0 0 0 0 0 0 0 0 0 0 0 0 0 0 0 0 0 0 0 0 0
0 0 0 0 0 0 0 0 0 0 0 0 0 0 0 0 0 0 0 0 0 0 0 0 0 0 0 0 0 0 0 0 0 0 0 0 0 0 0 0 0 0 0 0
0 0 0 0 0 0 0 0 0 0 0 0 0 0 0 0 0 0 0 0 0 0 0 0 0 0 0 0 0 0 0 0 0 0 0 0 0 0 0 0 0 0 0 0
0 0 0 0 0 0 0 0 0 0 0 0 0 0 0 0 0 0 0 0 0 0 0 0 0 0 0 0 0 0 0 0 0 0 0 0 0 0 0 0 0 0 0 0
0 0 0 0 0 0 0 0 0 0 0 0 0 0 0 0 0 0 0 0 0 0 0 0 0 0 0 0 0 0 0 0 0 0 0 0 0 0 0 0 0 0 0 0
0 0 0 0 0 0 0 0 0 0 0 0 0 0 0 0 0 0 0 0 0 0 0 0 0 0 0 0 0 0 0 0 0 0 0 0 0 0 0 0 0 0 0 0
0 0 0 0 0 0 0 0 0 0 0 0 0 0 0 0 0 0 0 0 0 0 0 0 0 0 0 0 0 0 0 0 0 0 0 0 0 0 0 0 0 0 0 0
0 0 0 0 0 0 0 0 0 0 0 0 0 0 0 0 0 0 0 0 0 0 0 0 0 0 0 0 0 0 0 0 0 0 0 0 0 0 0 0 0 0 0 0
0 0 0 0 0 0 0 0 0 0 0 0 0 0 0 0 0 0 0 0 0 0 0 0 0 0 0 0 0 0 0 0 0 0 0 0 0 0 0 0 0 0 0 0
0 0 0 0 0 0 0 0 0 0 0 0 0 0 0 0 0 0 0 0 0 0 0 0 0 0 0 0 0 0 0 0 0 0 0 0 0 0 0 0 0 0 0 0
0 0 0 0 0 0 0 0 0 0 0 0 0 0 0 0 0 0 0 0 0 0 0 0 0 0 0 0 0 0 0 0 0 0 0 0 0 0 0 0 0 0 0 0
Wind_Speed
3 3 1 2 5 4 4 7 7 6 3 3 2 2 4 6 7 7 6 5 3 4 5 5 6 7 8 8 8 9 8 8 9 8 7 6 6 6 5 5 5 5 4 4
4 4 5 5 7 5 4 2 4 3 0 1 1 4 7 8 8 8 7 7 6 4 4 5 7 8 8 8 8 9 10 10 9 7 7 7 7 6 5 5 4 4 4 4
3 5 5 5 4 0 1 2 3 3 2 1 4 7 7 7 7 7 7 8 7 6 6 6 7 9 10 10 8 9 10 10 9 8 8 8 7 6 6 6 5 5 5 4
1 3 2 6 2 3 6 5 4 4 2 2 3 4 5 7 7 8 9 9 9 8 6 5 5 6 7 7 8 9 10 10 9 9 9 8 7 7 7 5 5 5 5 5
2 2 5 5 3 1 4 3 4 3 4 3 1 3 6 8 7 7 7 7 7 8 6 5 4 4 4 6 7 8 10 10 10 10 9 8 8 8 6 5 5 5 4 5
3 3 5 6 5 1 7 2 3 3 4 4 5 4 4 8 8 9 9 8 9 10 8 7 6 3 3 6 7 9 11 11 10 10 11 11 10 8 6 5 6 5 4 4
4 5 7 5 5 2 3 5 2 2 4 4 3 2 4 6 7 8 8 8 9 9 9 8 8 4 3 4 7 9 8 8 9 10 11 11 9 7 6 6 5 5 4 4
3 4 6 4 3 2 4 2 2 3 3 3 1 2 4 6 7 9 9 10 9 9 9 9 8 7 5 5 7 5 5 7 9 10 10 9 8 8 7 7 6 5 4 3
5 5 3 1 2 2 4 4 2 2 1 2 2 3 4 5 6 7 7 8 8 8 10 9 9 8 7 8 7 4 4 7 9 9 9 8 10 9 7 7 6 6 5 5
1 3 1 1 2 2 3 3 2 2 1 2 1 2 3 4 5 6 6 7 7 9 10 11 10 9 8 9 6 4 5 6 6 8 8 7 7 8 8 8 7 7 6 6
3 4 2 1 2 2 2 2 2 1 1 0 1 2 3 3 4 5 6 6 6 7 8 10 10 10 10 9 7 6 5 5 5 6 7 7 7 6 9 9 10 10 8 8
8 7 5 5 4 2 2 2 2 1 0 1 0 1 3 3 4 4 5 6 7 7 9 10 10 10 10 9 8 6 5 5 4 4 5 5 6 3 0 3 9 12 12 10
7 5 4 4 3 3 3 3 2 2 1 1 1 2 2 3 3 4 5 6 7 8 8 9 10 10 10 9 9 7 6 5 4 4 5 6 7 8 5 1 2 7 12 14
5 3 3 4 4 4 4 3 2 1 1 1 2 2 2 3 4 5 6 7 7 8 8 8 9 10 9 9 9 9 7 6 5 5 6 7 7 8 8 8 6 3 5 11
8 7 7 5 4 4 3 2 1 1 1 2 2 3 3 4 6 7 7 7 7 8 9 9 9 10 10 9 9 9 7 5 5 5 5 6 6 6 7 8 7 5 4 5
5 4 4 4 5 4 3 3 2 3 3 3 3 4 5 6 7 7 8 7 7 9 9 10 10 10 10 9 9 8 7 11 9 5 5 5 6 7 7 8 8 8 8 8
5 5 5 5 5 4 4 4 4 4 4 4 5 6 6 6 7 8 9 8 8 9 9 9 11 11 10 9 8 7 7 8 10 7 5 6 7 8 9 9 10 10 9 10
9 9 8 7 6 5 4 4 4 4 5 6 6 6 6 7 8 10 10 9 9 9 9 9 10 10 9 9 8 6 6 6 6 6 6 6 7 8 8 9 10 11 7 9
7 7 6 6 6 5 5 5 5 5 6 6 7 7 8 8 9 9 9 9 9 11 10 9 15 11 9 10 11 6 7 7 7 7 6 8 7 7 8 9 9 10 10 10
5 5 5 5 4 4 4 5 5 6 6 7 8 8 9 10 10 10 9 9 8 9 10 12 11 9 9 9 12 6 7 8 8 7 7 6 7 8 8 9 10 10 10 10
4 4 4 4 4 5 5 6 6 7 8 8 8 9 10 11 10 9 8 9 10 9 10 15 10 8 7 10 13 7 7 8 8 7 7 7 7 7 8 9 10 10 11 10
4 4 4 4 5 6 6 6 7 8 9 9 9 9 10 10 10 9 10 9 10 13 10 7 7 11 14 15 7 7 8 9 8 7 7 7 7 7 8 8 9 10 10 10
4 4 5 5 6 7 7 7 7 8 9 10 10 9 10 10 7 7 10 8 7 14 11 8 12 19 22 12 7 8 9 9 9 8 8 7 7 7 8 9 9 9 9 10
5 5 6 6 5 6 7 8 8 8 9 9 9 10 9 8 8 7 8 12 15 16 10 11 17 21 20 9 7 8 9 9 9 9 8 8 7 7 7 8 8 8 9 11
6 6 6 6 6 6 8 8 8 8 9 8 9 10 8 7 8 9 8 9 15 16 9 13 21 22 13 8 8 9 9 9 9 8 7 7 6 6 6 7 8 8 8 9
5 5 6 7 6 6 6 6 6 6 7 8 8 7 7 7 8 8 8 9 12 15 11 9 10 12 9 9 9 9 9 9 10 8 7 6 6 6 6 7 9 8 9 9
5 5 4 5 6 6 6 6 7 7 7 8 9 8 7 7 7 8 9 9 9 9 9 9 8 8 8 8 8 8 8 8 7 6 5 5 5 5 6 8 8 8 9 10
Wind_Direction
233 257 288 282 288 275 210 198 193 226 221 277 312 9 11 17 21 23 9 348 296 248 231 221 215 209 203 201 195 189 186 193 201 204 204 204 202 204 205 203 204 199 194 198
343 334 348 324 306 289 272 235 194 165 176 312 54 61 39 28 26 20 1 342 322 289 257 231 219 214 209 204 199 190 191 200 201 197 197 201 203 201 198 203 206 198 197 197
294 310 358 318 294 271 33 355 154 157 199 104 75 59 44 26 20 11 354 345 332 308 268 246 230 213 210 207 196 194 198 201 197 194 195 201 200 195 198 203 202 201 203 196
247 354 252 243 273 105 92 40 46 91 73 79 116 109 59 31 17 5 355 347 339 325 303 274 253 230 215 198 192 197 201 202 198 193 196 197 194 198 202 197 197 202 205 202
147 217 278 290 301 168 127 46 0 76 57 31 28 49 16 6 5 357 347 342 334 328 308 299 283 247 210 198 197 200 204 205 202 195 194 192 196 201 199 192 198 202 200 201
149 179 239 253 290 304 108 93 328 76 68 39 52 45 322 334 350 354 351 350 348 347 348 343 325 294 208 207 202 209 211 209 204 197 195 197 200 198 192 189 198 198 204 204
193 213 253 272 304 42 147 215 222 99 87 74 88 199 272 327 351 351 349 348 352 354 355 344 340 333 265 227 223 225 220 210 201 199 198 198 195 190 186 186 185 190 198 206
167 194 249 313 33 109 191 169 135 99 88 86 86 346 348 352 350 350 351 351 351 352 347 346 349 347 318 279 259 245 220 209 204 202 201 197 188 189 184 179 180 188 189 199
188 208 239 0 115 144 139 131 132 115 96 87 44 354 346 343 343 343 346 345 344 344 341 342 349 346 325 305 304 277 228 220 212 203 201 190 186 187 182 181 184 189 187 192
266 243 233 85 110 109 124 137 148 141 119 80 17 330 333 334 335 336 335 338 340 343 341 338 337 338 324 317 317 294 249 230 217 202 200 196 191 189 186 188 190 190 191 193
267 268 301 255 184 174 159 144 130 110 111 78 346 321 318 320 322 325 327 328 336 335 329 325 328 330 328 327 323 310 284 250 227 210 199 196 194 195 195 199 194 190 194 187
237 230 210 237 244 198 164 172 177 163 310 319 276 297 317 313 312 316 322 325 327 327 324 322 324 324 327 327 322 308 300 276 242 216 199 189 179 171 245 204 203 197 187 180
231 237 212 212 208 194 184 194 190 180 199 265 286 286 301 298 300 309 314 319 317 313 313 315 317 318 321 325 322 307 289 281 256 225 204 191 186 182 180 125 142 191 188 183
234 223 244 239 230 215 199 189 170 165 226 249 269 291 296 294 299 305 303 300 303 306 307 309 310 312 314 319 319 310 295 281 272 235 214 204 197 194 186 178 177 184 189 184
246 230 226 225 213 201 182 163 151 231 278 295 293 298 299 297 295 293 293 296 303 307 306 307 306 307 310 313 315 310 302 287 279 262 230 213 201 192 188 186 181 169 156 174
223 206 190 183 186 184 178 178 196 237 252 262 274 279 278 278 282 288 291 293 296 297 300 302 299 300 303 307 310 306 298 294 290 271 243 216 202 195 191 188 183 181 184 178
197 206 197 192 194 197 201 211 218 234 249 261 266 272 280 287 290 290 288 282 277 278 284 290 291 294 298 299 300 300 297 293 291 279 250 225 212 206 199 193 191 192 193 185
208 205 195 189 193 202 214 220 229 241 252 261 271 277 279 281 281 281 281 282 282 283 282 280 283 288 290 293 291 292 292 286 279 272 260 238 224 215 205 199 197 192 183 183
194 189 188 190 194 197 209 228 242 249 259 266 270 272 271 272 273 275 278 280 282 286 285 280 290 291 285 287 291 284 286 283 280 276 269 251 233 221 209 201 197 192 184 180
176 173 177 188 197 204 224 240 249 257 262 264 268 273 276 276 275 276 277 275 269 267 275 283 287 281 279 281 288 279 280 278 275 274 271 254 235 224 214 203 195 189 186 186
171 179 191 207 226 236 241 247 254 263 268 267 266 268 272 276 276 274 275 281 278 271 275 284 285 278 278 282 289 277 276 275 270 267 264 256 239 227 219 206 196 190 187 185
192 204 223 232 242 257 260 259 260 266 271 272 269 270 273 276 276 273 265 266 274 281 283 274 270 278 287 291 280 273 274 273 267 262 259 253 241 227 218 209 199 192 186 182
214 222 234 244 250 257 266 267 264 265 268 269 269 269 268 268 266 269 279 274 268 281 285 274 276 287 293 291 274 270 272 271 265 258 253 248 242 229 216 206 198 187 180 175
231 237 241 248 254 263 270 271 268 266 265 268 266 264 266 272 273 263 263 277 283 286 281 275 281 289 294 282 270 268 269 268 262 256 251 244 240 230 213 200 189 179 174 168
239 244 249 253 256 257 260 267 273 274 273 272 270 269 264 258 263 272 271 272 279 286 281 281 288 291 288 273 267 267 266 264 262 257 247 241 235 225 207 189 177 171 167 164
242 244 245 243 245 253 258 262 265 267 270 273 273 269 266 266 267 270 273 272 271 280 281 277 278 281 274 269 266 266 266 267 268 257 244 237 227 214 192 174 164 163 159 156
249 253 259 265 264 257 257 257 261 265 264 265 271 272 269 269 270 272 274 275 275 275 275 275 274 271 270 271 269 267 266 263 256 243 230 223 211 195 176 162 157 153 150 149